owner,sensor,date,latitude,longitude,air_pressure(mBar),qcFlag 
WAVCIS,ioos:station:WAVCIS:CSI16:1,2011-02-01T00:00:00Z,29.4012,-89.0355,1010.56,11111222 
WAVCIS,ioos:station:WAVCIS:CSI16:1,2011-02-01T01:00:00Z,29.4012,-89.0355,1010.43,11111222 
WAVCIS,ioos:station:WAVCIS:CSI16:1,2011-02-01T02:00:00Z,29.4012,-89.0355,1010.42,11111222 
WAVCIS,ioos:station:WAVCIS:CSI16:1,2011-02-01T03:00:00Z,29.4012,-89.0355,1010.65,11111222 
WAVCIS,ioos:station:WAVCIS:CSI16:1,2011-02-01T04:00:00Z,29.4012,-89.0355,1010.34,11111222 
WAVCIS,ioos:station:WAVCIS:CSI16:1,2011-02-01T05:00:00Z,29.4012,-89.0355,1010.04,11111222 
WAVCIS,ioos:station:WAVCIS:CSI16:1,2011-02-01T06:00:00Z,29.4012,-89.0355,1009.41,11111222 
WAVCIS,ioos:station:WAVCIS:CSI16:1,2011-02-01T07:00:00Z,29.4012,-89.0355,1008.87,11111222 
WAVCIS,ioos:station:WAVCIS:CSI16:1,2011-02-01T08:00:00Z,29.4012,-89.0355,1008.86,11111222 
WAVCIS,ioos:station:WAVCIS:CSI16:1,2011-02-01T09:00:00Z,29.4012,-89.0355,1007.91,11111222 
WAVCIS,ioos:station:WAVCIS:CSI16:1,2011-02-01T10:00:00Z,29.4012,-89.0355,1007.22,11111222 
WAVCIS,ioos:station:WAVCIS:CSI16:1,2011-02-01T11:00:00Z,29.4012,-89.0355,1006.619,11111222 
WAVCIS,ioos:station:WAVCIS:CSI16:1,2011-02-01T12:00:00Z,29.4012,-89.0355,1006.857,11111222 
WAVCIS,ioos:station:WAVCIS:CSI16:1,2011-02-01T13:00:00Z,29.4012,-89.0355,1006.737,11111222 
WAVCIS,ioos:station:WAVCIS:CSI16:1,2011-02-01T14:00:00Z,29.4012,-89.0355,1006.994,11111222 
WAVCIS,ioos:station:WAVCIS:CSI16:1,2011-02-01T15:00:00Z,29.4012,-89.0355,1007.3,11111222 
WAVCIS,ioos:station:WAVCIS:CSI16:1,2011-02-01T16:00:00Z,29.4012,-89.0355,1006.993,11111222 
WAVCIS,ioos:station:WAVCIS:CSI16:1,2011-02-01T17:00:00Z,29.4012,-89.0355,1006.826,11111222 
WAVCIS,ioos:station:WAVCIS:CSI16:1,2011-02-01T18:00:00Z,29.4012,-89.0355,1006.033,11111222 
WAVCIS,ioos:station:WAVCIS:CSI16:1,2011-02-01T19:00:00Z,29.4012,-89.0355,1005.042,11111222 
WAVCIS,ioos:station:WAVCIS:CSI16:1,2011-02-01T20:00:00Z,29.4012,-89.0355,1003.753,11111222 
WAVCIS,ioos:station:WAVCIS:CSI16:1,2011-02-01T21:00:00Z,29.4012,-89.0355,1003.66,11111222 
WAVCIS,ioos:station:WAVCIS:CSI16:1,2011-02-01T22:00:00Z,29.4012,-89.0355,1003.588,11111222 
WAVCIS,ioos:station:WAVCIS:CSI16:1,2011-02-01T23:00:00Z,29.4012,-89.0355,1004.202,11111222 
WAVCIS,ioos:station:WAVCIS:CSI16:1,2011-02-02T00:00:00Z,29.4012,-89.0355,1004.786,11111222 
WAVCIS,ioos:station:WAVCIS:CSI16:1,2011-02-02T01:00:00Z,29.4012,-89.0355,1006.55,11111222 
WAVCIS,ioos:station:WAVCIS:CSI16:1,2011-02-02T02:00:00Z,29.4012,-89.0355,1007.7,11111222 
WAVCIS,ioos:station:WAVCIS:CSI16:1,2011-02-02T03:00:00Z,29.4012,-89.0355,1008.34,11111222 
WAVCIS,ioos:station:WAVCIS:CSI16:1,2011-02-02T04:00:00Z,29.4012,-89.0355,1009.12,11111222 
WAVCIS,ioos:station:WAVCIS:CSI16:1,2011-02-02T05:00:00Z,29.4012,-89.0355,1010.16,11111222 
WAVCIS,ioos:station:WAVCIS:CSI16:1,2011-02-02T06:00:00Z,29.4012,-89.0355,1010.49,11111222 
WAVCIS,ioos:station:WAVCIS:CSI16:1,2011-02-02T07:00:00Z,29.4012,-89.0355,1011.01,11111222 
WAVCIS,ioos:station:WAVCIS:CSI16:1,2011-02-02T08:00:00Z,29.4012,-89.0355,1011.75,11111222 
WAVCIS,ioos:station:WAVCIS:CSI16:1,2011-02-02T09:00:00Z,29.4012,-89.0355,1011.66,11111222 
WAVCIS,ioos:station:WAVCIS:CSI16:1,2011-02-02T10:00:00Z,29.4012,-89.0355,1010.77,11111222 
WAVCIS,ioos:station:WAVCIS:CSI16:1,2011-02-02T11:00:00Z,29.4012,-89.0355,1010.84,11111222 
WAVCIS,ioos:station:WAVCIS:CSI16:1,2011-02-02T12:00:00Z,29.4012,-89.0355,1012.33,11111222 
WAVCIS,ioos:station:WAVCIS:CSI16:1,2011-02-02T13:00:00Z,29.4012,-89.0355,1013.2,11111222 
WAVCIS,ioos:station:WAVCIS:CSI16:1,2011-02-02T14:00:00Z,29.4012,-89.0355,1013.71,11111222 
WAVCIS,ioos:station:WAVCIS:CSI16:1,2011-02-02T15:00:00Z,29.4012,-89.0355,1014.91,11111222 
WAVCIS,ioos:station:WAVCIS:CSI16:1,2011-02-02T16:00:00Z,29.4012,-89.0355,1016.41,11111222 
WAVCIS,ioos:station:WAVCIS:CSI16:1,2011-02-02T17:00:00Z,29.4012,-89.0355,1016.97,11111222 
WAVCIS,ioos:station:WAVCIS:CSI16:1,2011-02-02T18:00:00Z,29.4012,-89.0355,1016.57,11111222 
WAVCIS,ioos:station:WAVCIS:CSI16:1,2011-02-02T19:00:00Z,29.4012,-89.0355,1015.63,11111222 
WAVCIS,ioos:station:WAVCIS:CSI16:1,2011-02-02T20:00:00Z,29.4012,-89.0355,1014.57,11111222 
WAVCIS,ioos:station:WAVCIS:CSI16:1,2011-02-02T21:00:00Z,29.4012,-89.0355,1015.48,11111222 
WAVCIS,ioos:station:WAVCIS:CSI16:1,2011-02-02T22:00:00Z,29.4012,-89.0355,1015.3,11111222 
WAVCIS,ioos:station:WAVCIS:CSI16:1,2011-02-02T23:00:00Z,29.4012,-89.0355,1016.06,11111222 
WAVCIS,ioos:station:WAVCIS:CSI16:1,2011-02-03T00:00:00Z,29.4012,-89.0355,1016.19,11111222 
WAVCIS,ioos:station:WAVCIS:CSI16:1,2011-02-03T01:00:00Z,29.4012,-89.0355,1017.4,11111222 
WAVCIS,ioos:station:WAVCIS:CSI16:1,2011-02-03T02:00:00Z,29.4012,-89.0355,1016.99,11111222 
WAVCIS,ioos:station:WAVCIS:CSI16:1,2011-02-03T03:00:00Z,29.4012,-89.0355,1017.45,11111222 
WAVCIS,ioos:station:WAVCIS:CSI16:1,2011-02-03T04:00:00Z,29.4012,-89.0355,1018.21,11111222 
WAVCIS,ioos:station:WAVCIS:CSI16:1,2011-02-03T05:00:00Z,29.4012,-89.0355,1017.43,11111222 
WAVCIS,ioos:station:WAVCIS:CSI16:1,2011-02-03T06:00:00Z,29.4012,-89.0355,1016.77,11111222 
WAVCIS,ioos:station:WAVCIS:CSI16:1,2011-02-03T07:00:00Z,29.4012,-89.0355,1017.21,11111222 
WAVCIS,ioos:station:WAVCIS:CSI16:1,2011-02-03T08:00:00Z,29.4012,-89.0355,1017.17,11111222 
WAVCIS,ioos:station:WAVCIS:CSI16:1,2011-02-03T09:00:00Z,29.4012,-89.0355,1017.41,11111222 
WAVCIS,ioos:station:WAVCIS:CSI16:1,2011-02-03T10:00:00Z,29.4012,-89.0355,1016.41,11111222 
WAVCIS,ioos:station:WAVCIS:CSI16:1,2011-02-03T11:00:00Z,29.4012,-89.0355,1016.24,11111222 
WAVCIS,ioos:station:WAVCIS:CSI16:1,2011-02-03T12:00:00Z,29.4012,-89.0355,1016.5,11111222 
WAVCIS,ioos:station:WAVCIS:CSI16:1,2011-02-03T13:00:00Z,29.4012,-89.0355,1017.94,11111222 
WAVCIS,ioos:station:WAVCIS:CSI16:1,2011-02-03T14:00:00Z,29.4012,-89.0355,1019.0,11111222 
WAVCIS,ioos:station:WAVCIS:CSI16:1,2011-02-03T15:00:00Z,29.4012,-89.0355,1018.89,11111222 
WAVCIS,ioos:station:WAVCIS:CSI16:1,2011-02-03T16:00:00Z,29.4012,-89.0355,1019.23,11111222 
WAVCIS,ioos:station:WAVCIS:CSI16:1,2011-02-03T17:00:00Z,29.4012,-89.0355,1018.84,11111222 
WAVCIS,ioos:station:WAVCIS:CSI16:1,2011-02-03T18:00:00Z,29.4012,-89.0355,1017.99,11111222 
WAVCIS,ioos:station:WAVCIS:CSI16:1,2011-02-03T19:00:00Z,29.4012,-89.0355,1016.57,11111222 
WAVCIS,ioos:station:WAVCIS:CSI16:1,2011-02-03T20:00:00Z,29.4012,-89.0355,1016.22,11111222 
WAVCIS,ioos:station:WAVCIS:CSI16:1,2011-02-03T21:00:00Z,29.4012,-89.0355,1016.11,11111222 
WAVCIS,ioos:station:WAVCIS:CSI16:1,2011-02-03T22:00:00Z,29.4012,-89.0355,1015.7,11111222 
WAVCIS,ioos:station:WAVCIS:CSI16:1,2011-02-03T23:00:00Z,29.4012,-89.0355,1016.09,11111222 
WAVCIS,ioos:station:WAVCIS:CSI16:1,2011-02-04T00:00:00Z,29.4012,-89.0355,1014.85,11111222 
WAVCIS,ioos:station:WAVCIS:CSI16:1,2011-02-04T01:00:00Z,29.4012,-89.0355,1015.99,11111222 
WAVCIS,ioos:station:WAVCIS:CSI16:1,2011-02-04T02:00:00Z,29.4012,-89.0355,1015.76,11111222 
WAVCIS,ioos:station:WAVCIS:CSI16:1,2011-02-04T03:00:00Z,29.4012,-89.0355,1015.41,11111222 
WAVCIS,ioos:station:WAVCIS:CSI16:1,2011-02-04T04:00:00Z,29.4012,-89.0355,1015.07,11111222 
WAVCIS,ioos:station:WAVCIS:CSI16:1,2011-02-04T05:00:00Z,29.4012,-89.0355,1015.2,11111222 
WAVCIS,ioos:station:WAVCIS:CSI16:1,2011-02-04T06:00:00Z,29.4012,-89.0355,1014.11,11111222 
WAVCIS,ioos:station:WAVCIS:CSI16:1,2011-02-04T07:00:00Z,29.4012,-89.0355,1013.86,11111222 
WAVCIS,ioos:station:WAVCIS:CSI16:1,2011-02-04T08:00:00Z,29.4012,-89.0355,1012.55,11111222 
WAVCIS,ioos:station:WAVCIS:CSI16:1,2011-02-04T09:00:00Z,29.4012,-89.0355,1012.03,11111222 
WAVCIS,ioos:station:WAVCIS:CSI16:1,2011-02-04T10:00:00Z,29.4012,-89.0355,1011.83,11111222 
WAVCIS,ioos:station:WAVCIS:CSI16:1,2011-02-04T11:00:00Z,29.4012,-89.0355,1011.72,11111222 
WAVCIS,ioos:station:WAVCIS:CSI16:1,2011-02-04T12:00:00Z,29.4012,-89.0355,1011.23,11111222 
WAVCIS,ioos:station:WAVCIS:CSI16:1,2011-02-04T13:00:00Z,29.4012,-89.0355,1010.4,11111222 
WAVCIS,ioos:station:WAVCIS:CSI16:1,2011-02-04T14:00:00Z,29.4012,-89.0355,1010.46,11111222 
WAVCIS,ioos:station:WAVCIS:CSI16:1,2011-02-04T15:00:00Z,29.4012,-89.0355,1010.59,11111222 
WAVCIS,ioos:station:WAVCIS:CSI16:1,2011-02-04T16:00:00Z,29.4012,-89.0355,1010.17,11111222 
WAVCIS,ioos:station:WAVCIS:CSI16:1,2011-02-04T17:00:00Z,29.4012,-89.0355,1009.6,11111222 
WAVCIS,ioos:station:WAVCIS:CSI16:1,2011-02-04T19:00:00Z,29.4012,-89.0355,1007.16,11111222 
WAVCIS,ioos:station:WAVCIS:CSI16:1,2011-02-04T20:00:00Z,29.4012,-89.0355,1006.119,11111222 
WAVCIS,ioos:station:WAVCIS:CSI16:1,2011-02-04T21:00:00Z,29.4012,-89.0355,1005.218,11111222 
WAVCIS,ioos:station:WAVCIS:CSI16:1,2011-02-04T22:00:00Z,29.4012,-89.0355,1006.14,11111222 
WAVCIS,ioos:station:WAVCIS:CSI16:1,2011-02-04T23:00:00Z,29.4012,-89.0355,1006.611,11111222 
WAVCIS,ioos:station:WAVCIS:CSI16:1,2011-02-05T00:00:00Z,29.4012,-89.0355,1007.83,11111222 
WAVCIS,ioos:station:WAVCIS:CSI16:1,2011-02-05T01:00:00Z,29.4012,-89.0355,1008.01,11111222 
WAVCIS,ioos:station:WAVCIS:CSI16:1,2011-02-05T02:00:00Z,29.4012,-89.0355,1008.12,11111222 
WAVCIS,ioos:station:WAVCIS:CSI16:1,2011-02-05T03:00:00Z,29.4012,-89.0355,1007.83,11111222 
WAVCIS,ioos:station:WAVCIS:CSI16:1,2011-02-05T04:00:00Z,29.4012,-89.0355,1008.29,11111222 
WAVCIS,ioos:station:WAVCIS:CSI16:1,2011-02-05T05:00:00Z,29.4012,-89.0355,1008.55,11111222 
WAVCIS,ioos:station:WAVCIS:CSI16:1,2011-02-05T06:00:00Z,29.4012,-89.0355,1008.55,11111222 
WAVCIS,ioos:station:WAVCIS:CSI16:1,2011-02-05T07:00:00Z,29.4012,-89.0355,1008.61,11111222 
WAVCIS,ioos:station:WAVCIS:CSI16:1,2011-02-05T08:00:00Z,29.4012,-89.0355,1008.18,11111222 
WAVCIS,ioos:station:WAVCIS:CSI16:1,2011-02-05T09:00:00Z,29.4012,-89.0355,1008.0,11111222 
WAVCIS,ioos:station:WAVCIS:CSI16:1,2011-02-05T10:00:00Z,29.4012,-89.0355,1008.35,11111222 
WAVCIS,ioos:station:WAVCIS:CSI16:1,2011-02-05T11:00:00Z,29.4012,-89.0355,1008.79,11111222 
WAVCIS,ioos:station:WAVCIS:CSI16:1,2011-02-05T12:00:00Z,29.4012,-89.0355,1009.2,11111222 
WAVCIS,ioos:station:WAVCIS:CSI16:1,2011-02-05T13:00:00Z,29.4012,-89.0355,1009.54,11111222 
WAVCIS,ioos:station:WAVCIS:CSI16:1,2011-02-05T14:00:00Z,29.4012,-89.0355,1009.85,11111222 
WAVCIS,ioos:station:WAVCIS:CSI16:1,2011-02-05T15:00:00Z,29.4012,-89.0355,1010.52,11111222 
WAVCIS,ioos:station:WAVCIS:CSI16:1,2011-02-05T16:00:00Z,29.4012,-89.0355,1010.9,11111222 
WAVCIS,ioos:station:WAVCIS:CSI16:1,2011-02-05T17:00:00Z,29.4012,-89.0355,1010.41,11111222 
WAVCIS,ioos:station:WAVCIS:CSI16:1,2011-02-05T18:00:00Z,29.4012,-89.0355,1010.0,11111222 
WAVCIS,ioos:station:WAVCIS:CSI16:1,2011-02-05T19:00:00Z,29.4012,-89.0355,1009.65,11111222 
WAVCIS,ioos:station:WAVCIS:CSI16:1,2011-02-05T20:00:00Z,29.4012,-89.0355,1008.63,11111222 
WAVCIS,ioos:station:WAVCIS:CSI16:1,2011-02-05T21:00:00Z,29.4012,-89.0355,1007.41,11111222 
WAVCIS,ioos:station:WAVCIS:CSI16:1,2011-02-05T22:00:00Z,29.4012,-89.0355,1007.82,11111222 
WAVCIS,ioos:station:WAVCIS:CSI16:1,2011-02-05T23:00:00Z,29.4012,-89.0355,1007.9,11111222 
WAVCIS,ioos:station:WAVCIS:CSI16:1,2011-02-06T00:00:00Z,29.4012,-89.0355,1008.37,11111222 
WAVCIS,ioos:station:WAVCIS:CSI16:1,2011-02-06T01:00:00Z,29.4012,-89.0355,1008.72,11111222 
WAVCIS,ioos:station:WAVCIS:CSI16:1,2011-02-06T02:00:00Z,29.4012,-89.0355,1008.97,11111222 
WAVCIS,ioos:station:WAVCIS:CSI16:1,2011-02-06T03:00:00Z,29.4012,-89.0355,1009.28,11111222 
WAVCIS,ioos:station:WAVCIS:CSI16:1,2011-02-06T04:00:00Z,29.4012,-89.0355,1009.41,11111222 
WAVCIS,ioos:station:WAVCIS:CSI16:1,2011-02-06T05:00:00Z,29.4012,-89.0355,1009.4,11111222 
WAVCIS,ioos:station:WAVCIS:CSI16:1,2011-02-06T06:00:00Z,29.4012,-89.0355,1009.06,11111222 
WAVCIS,ioos:station:WAVCIS:CSI16:1,2011-02-06T07:00:00Z,29.4012,-89.0355,1008.81,11111222 
WAVCIS,ioos:station:WAVCIS:CSI16:1,2011-02-06T08:00:00Z,29.4012,-89.0355,1009.15,11111222 
WAVCIS,ioos:station:WAVCIS:CSI16:1,2011-02-06T09:00:00Z,29.4012,-89.0355,1009.34,11111222 
WAVCIS,ioos:station:WAVCIS:CSI16:1,2011-02-06T10:00:00Z,29.4012,-89.0355,1008.96,11111222 
WAVCIS,ioos:station:WAVCIS:CSI16:1,2011-02-06T11:00:00Z,29.4012,-89.0355,1008.71,11111222 
WAVCIS,ioos:station:WAVCIS:CSI16:1,2011-02-06T12:00:00Z,29.4012,-89.0355,1009.37,11111222 
WAVCIS,ioos:station:WAVCIS:CSI16:1,2011-02-06T13:00:00Z,29.4012,-89.0355,1009.98,11111222 
WAVCIS,ioos:station:WAVCIS:CSI16:1,2011-02-06T14:00:00Z,29.4012,-89.0355,1010.58,11111222 
WAVCIS,ioos:station:WAVCIS:CSI16:1,2011-02-06T15:00:00Z,29.4012,-89.0355,1011.94,11111222 
WAVCIS,ioos:station:WAVCIS:CSI16:1,2011-02-06T16:00:00Z,29.4012,-89.0355,1013.61,11111222 
WAVCIS,ioos:station:WAVCIS:CSI16:1,2011-02-06T17:00:00Z,29.4012,-89.0355,1013.96,11111222 
WAVCIS,ioos:station:WAVCIS:CSI16:1,2011-02-06T18:00:00Z,29.4012,-89.0355,1013.58,11111222 
WAVCIS,ioos:station:WAVCIS:CSI16:1,2011-02-06T19:00:00Z,29.4012,-89.0355,1011.73,11111222 
WAVCIS,ioos:station:WAVCIS:CSI16:1,2011-02-06T20:00:00Z,29.4012,-89.0355,1010.84,11111222 
WAVCIS,ioos:station:WAVCIS:CSI16:1,2011-02-06T21:00:00Z,29.4012,-89.0355,1010.51,11111222 
WAVCIS,ioos:station:WAVCIS:CSI16:1,2011-02-06T22:00:00Z,29.4012,-89.0355,1010.27,11111222 
WAVCIS,ioos:station:WAVCIS:CSI16:1,2011-02-06T23:00:00Z,29.4012,-89.0355,1010.6,11111222 
WAVCIS,ioos:station:WAVCIS:CSI16:1,2011-02-07T00:00:00Z,29.4012,-89.0355,1010.58,11111222 
WAVCIS,ioos:station:WAVCIS:CSI16:1,2011-02-07T01:00:00Z,29.4012,-89.0355,1011.1,11111222 
WAVCIS,ioos:station:WAVCIS:CSI16:1,2011-02-07T02:00:00Z,29.4012,-89.0355,1010.22,11111222 
WAVCIS,ioos:station:WAVCIS:CSI16:1,2011-02-07T03:00:00Z,29.4012,-89.0355,1010.51,11111222 
WAVCIS,ioos:station:WAVCIS:CSI16:1,2011-02-07T04:00:00Z,29.4012,-89.0355,1010.65,11111222 
WAVCIS,ioos:station:WAVCIS:CSI16:1,2011-02-07T05:00:00Z,29.4012,-89.0355,1010.04,11111222 
WAVCIS,ioos:station:WAVCIS:CSI16:1,2011-02-07T06:00:00Z,29.4012,-89.0355,1009.33,11111222 
WAVCIS,ioos:station:WAVCIS:CSI16:1,2011-02-07T07:00:00Z,29.4012,-89.0355,1008.9,11111222 
WAVCIS,ioos:station:WAVCIS:CSI16:1,2011-02-07T08:00:00Z,29.4012,-89.0355,1007.79,11111222 
WAVCIS,ioos:station:WAVCIS:CSI16:1,2011-02-07T09:00:00Z,29.4012,-89.0355,1008.49,11111222 
WAVCIS,ioos:station:WAVCIS:CSI16:1,2011-02-07T10:00:00Z,29.4012,-89.0355,1007.3,11111222 
WAVCIS,ioos:station:WAVCIS:CSI16:1,2011-02-07T11:00:00Z,29.4012,-89.0355,1007.21,11111222 
WAVCIS,ioos:station:WAVCIS:CSI16:1,2011-02-07T12:00:00Z,29.4012,-89.0355,1007.02,11111222 
WAVCIS,ioos:station:WAVCIS:CSI16:1,2011-02-07T13:00:00Z,29.4012,-89.0355,1006.964,11111222 
WAVCIS,ioos:station:WAVCIS:CSI16:1,2011-02-07T14:00:00Z,29.4012,-89.0355,1007.16,11111222 
WAVCIS,ioos:station:WAVCIS:CSI16:1,2011-02-07T15:00:00Z,29.4012,-89.0355,1007.06,11111222 
WAVCIS,ioos:station:WAVCIS:CSI16:1,2011-02-07T16:00:00Z,29.4012,-89.0355,1008.59,11111222 
WAVCIS,ioos:station:WAVCIS:CSI16:1,2011-02-07T17:00:00Z,29.4012,-89.0355,1008.81,11111222 
WAVCIS,ioos:station:WAVCIS:CSI16:1,2011-02-07T18:00:00Z,29.4012,-89.0355,1008.28,11111222 
WAVCIS,ioos:station:WAVCIS:CSI16:1,2011-02-07T19:00:00Z,29.4012,-89.0355,1008.39,11111222 
WAVCIS,ioos:station:WAVCIS:CSI16:1,2011-02-07T20:00:00Z,29.4012,-89.0355,1009.11,11111222 
WAVCIS,ioos:station:WAVCIS:CSI16:1,2011-02-07T21:00:00Z,29.4012,-89.0355,1009.46,11111222 
WAVCIS,ioos:station:WAVCIS:CSI16:1,2011-02-07T22:00:00Z,29.4012,-89.0355,1010.35,11111222 
WAVCIS,ioos:station:WAVCIS:CSI16:1,2011-02-07T23:00:00Z,29.4012,-89.0355,1011.18,11111222 
WAVCIS,ioos:station:WAVCIS:CSI16:1,2011-02-08T00:00:00Z,29.4012,-89.0355,1012.31,11111222 
WAVCIS,ioos:station:WAVCIS:CSI16:1,2011-02-08T01:00:00Z,29.4012,-89.0355,1013.38,11111222 
WAVCIS,ioos:station:WAVCIS:CSI16:1,2011-02-08T02:00:00Z,29.4012,-89.0355,1014.03,11111222 
WAVCIS,ioos:station:WAVCIS:CSI16:1,2011-02-08T03:00:00Z,29.4012,-89.0355,1014.98,11111222 
WAVCIS,ioos:station:WAVCIS:CSI16:1,2011-02-08T04:00:00Z,29.4012,-89.0355,1015.38,11111222 
WAVCIS,ioos:station:WAVCIS:CSI16:1,2011-02-08T05:00:00Z,29.4012,-89.0355,1014.94,11111222 
WAVCIS,ioos:station:WAVCIS:CSI16:1,2011-02-08T06:00:00Z,29.4012,-89.0355,1015.01,11111222 
WAVCIS,ioos:station:WAVCIS:CSI16:1,2011-02-08T07:00:00Z,29.4012,-89.0355,1014.83,11111222 
WAVCIS,ioos:station:WAVCIS:CSI16:1,2011-02-08T08:00:00Z,29.4012,-89.0355,1014.81,11111222 
WAVCIS,ioos:station:WAVCIS:CSI16:1,2011-02-08T09:00:00Z,29.4012,-89.0355,1014.86,11111222 
WAVCIS,ioos:station:WAVCIS:CSI16:1,2011-02-08T10:00:00Z,29.4012,-89.0355,1015.57,11111222 
WAVCIS,ioos:station:WAVCIS:CSI16:1,2011-02-08T11:00:00Z,29.4012,-89.0355,1016.19,11111222 
WAVCIS,ioos:station:WAVCIS:CSI16:1,2011-02-08T12:00:00Z,29.4012,-89.0355,1016.63,11111222 
WAVCIS,ioos:station:WAVCIS:CSI16:1,2011-02-08T13:00:00Z,29.4012,-89.0355,1017.34,11111222 
WAVCIS,ioos:station:WAVCIS:CSI16:1,2011-02-08T14:00:00Z,29.4012,-89.0355,1018.18,11111222 
WAVCIS,ioos:station:WAVCIS:CSI16:1,2011-02-08T15:00:00Z,29.4012,-89.0355,1019.27,11111222 
WAVCIS,ioos:station:WAVCIS:CSI16:1,2011-02-08T16:00:00Z,29.4012,-89.0355,1019.93,11111222 
WAVCIS,ioos:station:WAVCIS:CSI16:1,2011-02-08T17:00:00Z,29.4012,-89.0355,1019.87,11111222 
WAVCIS,ioos:station:WAVCIS:CSI16:1,2011-02-08T18:00:00Z,29.4012,-89.0355,1018.69,11111222 
WAVCIS,ioos:station:WAVCIS:CSI16:1,2011-02-08T19:00:00Z,29.4012,-89.0355,1017.78,11111222 
WAVCIS,ioos:station:WAVCIS:CSI16:1,2011-02-08T20:00:00Z,29.4012,-89.0355,1016.99,11111222 
WAVCIS,ioos:station:WAVCIS:CSI16:1,2011-02-08T21:00:00Z,29.4012,-89.0355,1016.52,11111222 
WAVCIS,ioos:station:WAVCIS:CSI16:1,2011-02-08T22:00:00Z,29.4012,-89.0355,1016.54,11111222 
WAVCIS,ioos:station:WAVCIS:CSI16:1,2011-02-08T23:00:00Z,29.4012,-89.0355,1015.87,11111222 
WAVCIS,ioos:station:WAVCIS:CSI16:1,2011-02-09T00:00:00Z,29.4012,-89.0355,1015.18,11111222 
WAVCIS,ioos:station:WAVCIS:CSI16:1,2011-02-09T01:00:00Z,29.4012,-89.0355,1014.76,11111222 
WAVCIS,ioos:station:WAVCIS:CSI16:1,2011-02-09T02:00:00Z,29.4012,-89.0355,1015.19,11111222 
WAVCIS,ioos:station:WAVCIS:CSI16:1,2011-02-09T03:00:00Z,29.4012,-89.0355,1014.88,11111222 
WAVCIS,ioos:station:WAVCIS:CSI16:1,2011-02-09T04:00:00Z,29.4012,-89.0355,1015.05,11111222 
WAVCIS,ioos:station:WAVCIS:CSI16:1,2011-02-09T05:00:00Z,29.4012,-89.0355,1015.14,11111222 
WAVCIS,ioos:station:WAVCIS:CSI16:1,2011-02-09T06:00:00Z,29.4012,-89.0355,1014.61,11111222 
WAVCIS,ioos:station:WAVCIS:CSI16:1,2011-02-09T07:00:00Z,29.4012,-89.0355,1014.27,11111222 
WAVCIS,ioos:station:WAVCIS:CSI16:1,2011-02-09T08:00:00Z,29.4012,-89.0355,1014.35,11111222 
WAVCIS,ioos:station:WAVCIS:CSI16:1,2011-02-09T09:00:00Z,29.4012,-89.0355,1013.64,11111222 
WAVCIS,ioos:station:WAVCIS:CSI16:1,2011-02-09T10:00:00Z,29.4012,-89.0355,1013.58,11111222 
WAVCIS,ioos:station:WAVCIS:CSI16:1,2011-02-09T11:00:00Z,29.4012,-89.0355,1014.21,11111222 
WAVCIS,ioos:station:WAVCIS:CSI16:1,2011-02-09T12:00:00Z,29.4012,-89.0355,1014.23,11111222 
WAVCIS,ioos:station:WAVCIS:CSI16:1,2011-02-09T13:00:00Z,29.4012,-89.0355,1013.44,11111222 
WAVCIS,ioos:station:WAVCIS:CSI16:1,2011-02-09T14:00:00Z,29.4012,-89.0355,1013.99,11111222 
WAVCIS,ioos:station:WAVCIS:CSI16:1,2011-02-09T15:00:00Z,29.4012,-89.0355,1014.64,11111222 
WAVCIS,ioos:station:WAVCIS:CSI16:1,2011-02-09T16:00:00Z,29.4012,-89.0355,1014.58,11111222 
WAVCIS,ioos:station:WAVCIS:CSI16:1,2011-02-09T17:00:00Z,29.4012,-89.0355,1014.03,11111222 
WAVCIS,ioos:station:WAVCIS:CSI16:1,2011-02-09T18:00:00Z,29.4012,-89.0355,1013.43,11111222 
WAVCIS,ioos:station:WAVCIS:CSI16:1,2011-02-09T19:00:00Z,29.4012,-89.0355,1011.76,11111222 
WAVCIS,ioos:station:WAVCIS:CSI16:1,2011-02-09T20:00:00Z,29.4012,-89.0355,1010.62,11111222 
WAVCIS,ioos:station:WAVCIS:CSI16:1,2011-02-09T21:00:00Z,29.4012,-89.0355,1009.25,11111222 
WAVCIS,ioos:station:WAVCIS:CSI16:1,2011-02-09T22:00:00Z,29.4012,-89.0355,1008.28,11111222 
WAVCIS,ioos:station:WAVCIS:CSI16:1,2011-02-09T23:00:00Z,29.4012,-89.0355,1007.82,11111222 
WAVCIS,ioos:station:WAVCIS:CSI16:1,2011-02-10T00:00:00Z,29.4012,-89.0355,1007.36,11111222 
WAVCIS,ioos:station:WAVCIS:CSI16:1,2011-02-10T01:00:00Z,29.4012,-89.0355,1007.42,11111222 
WAVCIS,ioos:station:WAVCIS:CSI16:1,2011-02-10T02:00:00Z,29.4012,-89.0355,1007.21,11111222 
WAVCIS,ioos:station:WAVCIS:CSI16:1,2011-02-10T03:00:00Z,29.4012,-89.0355,1008.59,11111222 
WAVCIS,ioos:station:WAVCIS:CSI16:1,2011-02-10T04:00:00Z,29.4012,-89.0355,1008.3,11111222 
WAVCIS,ioos:station:WAVCIS:CSI16:1,2011-02-10T05:00:00Z,29.4012,-89.0355,1008.36,11111222 
WAVCIS,ioos:station:WAVCIS:CSI16:1,2011-02-10T06:00:00Z,29.4012,-89.0355,1008.78,11111222 
WAVCIS,ioos:station:WAVCIS:CSI16:1,2011-02-10T07:00:00Z,29.4012,-89.0355,1008.0,11111222 
WAVCIS,ioos:station:WAVCIS:CSI16:1,2011-02-10T08:00:00Z,29.4012,-89.0355,1008.9,11111222 
WAVCIS,ioos:station:WAVCIS:CSI16:1,2011-02-10T09:00:00Z,29.4012,-89.0355,1009.83,11111222 
WAVCIS,ioos:station:WAVCIS:CSI16:1,2011-02-10T10:00:00Z,29.4012,-89.0355,1010.11,11111222 
WAVCIS,ioos:station:WAVCIS:CSI16:1,2011-02-10T11:00:00Z,29.4012,-89.0355,1010.83,11111222 
WAVCIS,ioos:station:WAVCIS:CSI16:1,2011-02-10T12:00:00Z,29.4012,-89.0355,1011.33,11111222 
WAVCIS,ioos:station:WAVCIS:CSI16:1,2011-02-10T13:00:00Z,29.4012,-89.0355,1011.73,11111222 
WAVCIS,ioos:station:WAVCIS:CSI16:1,2011-02-10T14:00:00Z,29.4012,-89.0355,1012.96,11111222 
WAVCIS,ioos:station:WAVCIS:CSI16:1,2011-02-10T15:00:00Z,29.4012,-89.0355,1013.41,11111222 
WAVCIS,ioos:station:WAVCIS:CSI16:1,2011-02-10T16:00:00Z,29.4012,-89.0355,1013.53,11111222 
WAVCIS,ioos:station:WAVCIS:CSI16:1,2011-02-10T17:00:00Z,29.4012,-89.0355,1014.09,11111222 
WAVCIS,ioos:station:WAVCIS:CSI16:1,2011-02-10T18:00:00Z,29.4012,-89.0355,1013.54,11111222 
WAVCIS,ioos:station:WAVCIS:CSI16:1,2011-02-10T19:00:00Z,29.4012,-89.0355,1013.08,11111222 
WAVCIS,ioos:station:WAVCIS:CSI16:1,2011-02-10T20:00:00Z,29.4012,-89.0355,1012.8,11111222 
WAVCIS,ioos:station:WAVCIS:CSI16:1,2011-02-10T21:00:00Z,29.4012,-89.0355,1012.86,11111222 
WAVCIS,ioos:station:WAVCIS:CSI16:1,2011-02-10T22:00:00Z,29.4012,-89.0355,1012.89,11111222 
WAVCIS,ioos:station:WAVCIS:CSI16:1,2011-02-10T23:00:00Z,29.4012,-89.0355,1013.65,11111222 
WAVCIS,ioos:station:WAVCIS:CSI16:1,2011-02-11T00:00:00Z,29.4012,-89.0355,1013.72,11111222 
WAVCIS,ioos:station:WAVCIS:CSI16:1,2011-02-11T01:00:00Z,29.4012,-89.0355,1013.66,11111222 
WAVCIS,ioos:station:WAVCIS:CSI16:1,2011-02-11T02:00:00Z,29.4012,-89.0355,1014.08,11111222 
WAVCIS,ioos:station:WAVCIS:CSI16:1,2011-02-11T03:00:00Z,29.4012,-89.0355,1014.41,11111222 
WAVCIS,ioos:station:WAVCIS:CSI16:1,2011-02-11T04:00:00Z,29.4012,-89.0355,1014.57,11111222 
WAVCIS,ioos:station:WAVCIS:CSI16:1,2011-02-11T05:00:00Z,29.4012,-89.0355,1014.5,11111222 
WAVCIS,ioos:station:WAVCIS:CSI16:1,2011-02-11T06:00:00Z,29.4012,-89.0355,1014.3,11111222 
WAVCIS,ioos:station:WAVCIS:CSI16:1,2011-02-11T07:00:00Z,29.4012,-89.0355,1014.27,11111222 
WAVCIS,ioos:station:WAVCIS:CSI16:1,2011-02-11T08:00:00Z,29.4012,-89.0355,1014.52,11111222 
WAVCIS,ioos:station:WAVCIS:CSI16:1,2011-02-11T09:00:00Z,29.4012,-89.0355,1014.73,11111222 
WAVCIS,ioos:station:WAVCIS:CSI16:1,2011-02-11T10:00:00Z,29.4012,-89.0355,1015.14,11111222 
WAVCIS,ioos:station:WAVCIS:CSI16:1,2011-02-11T11:00:00Z,29.4012,-89.0355,1015.43,11111222 
WAVCIS,ioos:station:WAVCIS:CSI16:1,2011-02-11T12:00:00Z,29.4012,-89.0355,1015.94,11111222 
WAVCIS,ioos:station:WAVCIS:CSI16:1,2011-02-11T13:00:00Z,29.4012,-89.0355,1016.51,11111222 
WAVCIS,ioos:station:WAVCIS:CSI16:1,2011-02-11T14:00:00Z,29.4012,-89.0355,1017.38,11111222 
WAVCIS,ioos:station:WAVCIS:CSI16:1,2011-02-11T15:00:00Z,29.4012,-89.0355,1018.71,11111222 
WAVCIS,ioos:station:WAVCIS:CSI16:1,2011-02-11T16:00:00Z,29.4012,-89.0355,1019.45,11111222 
WAVCIS,ioos:station:WAVCIS:CSI16:1,2011-02-11T17:00:00Z,29.4012,-89.0355,1019.66,11111222 
WAVCIS,ioos:station:WAVCIS:CSI16:1,2011-02-11T18:00:00Z,29.4012,-89.0355,1019.15,11111222 
WAVCIS,ioos:station:WAVCIS:CSI16:1,2011-02-11T19:00:00Z,29.4012,-89.0355,1017.84,11111222 
WAVCIS,ioos:station:WAVCIS:CSI16:1,2011-02-11T20:00:00Z,29.4012,-89.0355,1017.46,11111222 
WAVCIS,ioos:station:WAVCIS:CSI16:1,2011-02-11T21:00:00Z,29.4012,-89.0355,1017.16,11111222 
WAVCIS,ioos:station:WAVCIS:CSI16:1,2011-02-11T22:00:00Z,29.4012,-89.0355,1017.2,11111222 
WAVCIS,ioos:station:WAVCIS:CSI16:1,2011-02-11T23:00:00Z,29.4012,-89.0355,1017.54,11111222 